404P/Bressi (2023)

Japanese version
Home page
Updated on December 11, 2020

---------------------------------------------------------------------

* Profile

Designation 404P/2020 M6
Recovery Date June 17, 2020
Magnitude 22.1 mag
Recoverer Pan-STARRS 1 telescope (Haleakala)

* Orbital Elements

Epoch 2023 Oct. 23.0 TT = JDT 2460240.5                                         
T 2023 Nov. 4.13699 TT                                  Rudenko                 
q   4.1325770            (2000.0)            P               Q                  
n   0.09560905     Peri.  169.36855     +0.34903905     -0.92201203             
a   4.7366365      Node   260.04093     +0.84681544     +0.38689077             
e   0.1275292      Incl.    9.79310     +0.40134195     -0.01446864             
P  10.3                                                                         
From 219 observations 2011 Oct. 24-2020 Aug. 16, mean residual 0".4.            

* Magnitudes Graph

        m1 = 3.0 + 5 log d + 20 log r

---------------------------------------------------------------------

The orbital elements are published on M.P.E.C. 2020-U182.
The magnitudes graphs are made with Comet for Windows.

---------------------------------------------------------------------

Copyright(C) Seiichi Yoshida (comet@aerith.net). All rights reserved.